When you browse on this site, cookies collect data to enhance your experience and personalize the content and advertising you see.
Visit our Privacy Policy to learn more. By continuing to use the site, you agree to this use of cookies and data.
  • In Schweiz
  • Länderverzeichnis
  • Für 7 Tage
  • Wassertemperatur
  • Wetterkarte
  • Widgets
  • user-avatar
    Anmelden

    Stündliche Wetter Chichester

    Heute, 2 Juni, Dienstag

    Zeit Temperatur Niederschläge Wind Luftdruck Luftfeuchtigkeit
    00:00 +12°C° 0 mm 3 m/S 764 mmHg 84%
    01:00 +12°C° 0 mm 3 m/S 764 mmHg 81%
    02:00 +12°C° 0 mm 3 m/S 764 mmHg 79%
    03:00 +12°C° 0 mm 3 m/S 764 mmHg 76%
    04:00 +12°C° 0 mm 4 m/S 764 mmHg 74%
    05:00 +13°C° 0 mm 4 m/S 764 mmHg 72%
    06:00 +13°C° 0 mm 4 m/S 764 mmHg 69%
    07:00 +15°C° 0 mm 4 m/S 763 mmHg 66%
    08:00 +17°C° 0 mm 4 m/S 763 mmHg 64%
    09:00 +19°C° 0 mm 4 m/S 763 mmHg 61%
    10:00 +20°C° 0 mm 3 m/S 763 mmHg 59%
    11:00 +21°C° 0 mm 3 m/S 763 mmHg 56%
    12:00 +23°C° 0 mm 2 m/S 763 mmHg 53%
    13:00 +23°C° 0 mm 2 m/S 762 mmHg 53%
    14:00 +23°C° 0 mm 2 m/S 762 mmHg 53%
    15:00 +23°C° 0 mm 2 m/S 761 mmHg 52%
    16:00 +22°C° 0 mm 3 m/S 761 mmHg 56%
    17:00 +21°C° 0 mm 3 m/S 760 mmHg 60%
    18:00 +20°C° 0 mm 3 m/S 760 mmHg 64%
    19:00 +19°C° 0 mm 3 m/S 760 mmHg 67%
    20:00 +17°C° 0 mm 3 m/S 760 mmHg 71%
    21:00 +15°C° 0 mm 2 m/S 759 mmHg 75%
    22:00 +14°C° 0 mm 2 m/S 759 mmHg 75%
    23:00 +14°C° 0 mm 1 m/S 759 mmHg 75%

    Morgen, 3 Juni, Mittwoch

    Zeit Temperatur Niederschläge Wind Luftdruck Luftfeuchtigkeit
    00:00 +14°C° 0 mm 1 m/S 758 mmHg 75%
    01:00 +14°C° 0 mm 1 m/S 757 mmHg 76%
    02:00 +14°C° 0 mm 1 m/S 757 mmHg 76%
    03:00 +13°C° 0 mm 0 m/S 756 mmHg 77%
    04:00 +15°C° 0.2 mm 1 m/S 756 mmHg 80%
    05:00 +15°C° 0.2 mm 1 m/S 755 mmHg 84%
    06:00 +15°C° 0.2 mm 1 m/S 755 mmHg 88%
    07:00 +15°C° 0.5 mm 1 m/S 755 mmHg 88%
    08:00 +15°C° 0.5 mm 2 m/S 755 mmHg 88%
    09:00 +15°C° 0.5 mm 2 m/S 754 mmHg 89%
    10:00 +16°C° 0.2 mm 2 m/S 754 mmHg 88%
    11:00 +16°C° 0.2 mm 2 m/S 754 mmHg 87%
    12:00 +16°C° 0.2 mm 2 m/S 754 mmHg 87%
    13:00 +16°C° 0.2 mm 2 m/S 753 mmHg 87%
    14:00 +16°C° 0.2 mm 2 m/S 753 mmHg 88%
    15:00 +14°C° 0.2 mm 3 m/S 753 mmHg 89%
    16:00 +14°C° 0.1 mm 3 m/S 753 mmHg 89%
    17:00 +14°C° 0.1 mm 4 m/S 753 mmHg 89%
    18:00 +13°C° 0.1 mm 4 m/S 753 mmHg 89%
    19:00 +13°C° 0 mm 5 m/S 753 mmHg 89%
    20:00 +12°C° 0 mm 5 m/S 753 mmHg 88%
    21:00 +10°C° 0 mm 5 m/S 753 mmHg 88%
    22:00 +10°C° 0 mm 5 m/S 753 mmHg 89%
    23:00 +9°C° 0 mm 5 m/S 753 mmHg 91%

    übermorgen, 4 Juni, Donnerstag

    Zeit Temperatur Niederschläge Wind Luftdruck Luftfeuchtigkeit
    00:00 +9°C° 0 mm 5 m/S 753 mmHg 92%
    01:00 +9°C° 0 mm 5 m/S 753 mmHg 92%
    02:00 +8°C° 0 mm 5 m/S 752 mmHg 92%
    03:00 +8°C° 0 mm 5 m/S 752 mmHg 93%
    04:00 +8°C° 0 mm 6 m/S 752 mmHg 92%
    05:00 +9°C° 0 mm 6 m/S 752 mmHg 92%
    06:00 +9°C° 0 mm 6 m/S 752 mmHg 91%
    07:00 +10°C° 0 mm 6 m/S 752 mmHg 88%
    08:00 +10°C° 0 mm 6 m/S 752 mmHg 84%
    09:00 +10°C° 0 mm 5 m/S 752 mmHg 80%
    10:00 +13°C° 0 mm 5 m/S 752 mmHg 74%
    11:00 +14°C° 0 mm 4 m/S 752 mmHg 68%
    12:00 +15°C° 0 mm 4 m/S 752 mmHg 62%
    13:00 +15°C° 0.1 mm 4 m/S 751 mmHg 62%
    14:00 +15°C° 0.1 mm 4 m/S 751 mmHg 62%
    15:00 +15°C° 0.1 mm 4 m/S 751 mmHg 61%
    16:00 +14°C° 0.3 mm 4 m/S 751 mmHg 70%
    17:00 +13°C° 0.3 mm 4 m/S 751 mmHg 78%
    18:00 +12°C° 0.3 mm 4 m/S 751 mmHg 86%
    19:00 +11°C° 0 mm 4 m/S 751 mmHg 87%
    20:00 +11°C° 0 mm 4 m/S 751 mmHg 88%
    21:00 +10°C° 0 mm 4 m/S 751 mmHg 89%
    22:00 +8°C° 0 mm 4 m/S 751 mmHg 90%
    23:00 +8°C° 0 mm 4 m/S 750 mmHg 91%

    5 Juni, Freitag

    Zeit Temperatur Niederschläge Wind Luftdruck Luftfeuchtigkeit
    00:00 +7°C° 0 mm 4 m/S 750 mmHg 92%
    01:00 +7°C° 0 mm 4 m/S 750 mmHg 93%
    02:00 +7°C° 0 mm 4 m/S 749 mmHg 94%
    03:00 +7°C° 0 mm 4 m/S 749 mmHg 95%
    04:00 +8°C° 0 mm 5 m/S 749 mmHg 92%
    05:00 +8°C° 0 mm 5 m/S 749 mmHg 89%
    06:00 +9°C° 0 mm 5 m/S 748 mmHg 85%
    07:00 +10°C° 0 mm 5 m/S 748 mmHg 80%
    08:00 +13°C° 0 mm 6 m/S 749 mmHg 75%
    09:00 +14°C° 0 mm 6 m/S 749 mmHg 69%
    10:00 +14°C° 0.1 mm 6 m/S 749 mmHg 68%
    11:00 +15°C° 0.1 mm 6 m/S 748 mmHg 66%
    12:00 +15°C° 0.1 mm 7 m/S 748 mmHg 65%
    13:00 +14°C° 0.1 mm 7 m/S 748 mmHg 69%
    14:00 +12°C° 0.1 mm 7 m/S 748 mmHg 73%
    15:00 +11°C° 0.1 mm 7 m/S 748 mmHg 77%
    16:00 +10°C° 0.3 mm 6 m/S 747 mmHg 82%
    17:00 +10°C° 0.3 mm 5 m/S 747 mmHg 87%
    18:00 +10°C° 0.3 mm 4 m/S 747 mmHg 91%
    19:00 +10°C° 0.1 mm 4 m/S 747 mmHg 92%
    20:00 +8°C° 0.1 mm 4 m/S 748 mmHg 93%
    21:00 +8°C° 0.1 mm 4 m/S 748 mmHg 94%
    22:00 +7°C° 0 mm 4 m/S 748 mmHg 93%
    23:00 +7°C° 0 mm 5 m/S 748 mmHg 93%

    6 Juni, Samstag

    Zeit Temperatur Niederschläge Wind Luftdruck Luftfeuchtigkeit
    00:00 +6°C° 0 mm 5 m/S 748 mmHg 92%
    01:00 +6°C° 0 mm 5 m/S 749 mmHg 91%
    02:00 +5°C° 0 mm 5 m/S 749 mmHg 89%
    03:00 +5°C° 0 mm 5 m/S 749 mmHg 88%
    04:00 +5°C° 0 mm 5 m/S 750 mmHg 86%
    05:00 +6°C° 0 mm 5 m/S 750 mmHg 84%
    06:00 +5°C° 0 mm 6 m/S 751 mmHg 82%
    07:00 +8°C° 0 mm 6 m/S 751 mmHg 75%
    08:00 +9°C° 0 mm 6 m/S 751 mmHg 68%
    09:00 +11°C° 0 mm 7 m/S 751 mmHg 60%
    10:00 +11°C° 0 mm 7 m/S 751 mmHg 58%
    11:00 +12°C° 0 mm 7 m/S 751 mmHg 55%
    12:00 +12°C° 0 mm 8 m/S 752 mmHg 52%
    13:00 +12°C° 0 mm 8 m/S 751 mmHg 52%
    14:00 +12°C° 0 mm 8 m/S 751 mmHg 52%
    15:00 +13°C° 0 mm 8 m/S 751 mmHg 52%
    16:00 +12°C° 0 mm 8 m/S 751 mmHg 54%
    17:00 +11°C° 0 mm 8 m/S 751 mmHg 56%
    18:00 +11°C° 0 mm 7 m/S 751 mmHg 58%
    19:00 +10°C° 0 mm 7 m/S 751 mmHg 62%
    20:00 +8°C° 0 mm 7 m/S 751 mmHg 67%
    21:00 +7°C° 0 mm 6 m/S 752 mmHg 71%
    22:00 +6°C° 0 mm 7 m/S 751 mmHg 74%
    23:00 +6°C° 0 mm 7 m/S 751 mmHg 77%

    7 Juni, Sonntag

    Zeit Temperatur Niederschläge Wind Luftdruck Luftfeuchtigkeit
    00:00 +6°C° 0 mm 7 m/S 751 mmHg 80%
    01:00 +6°C° 0 mm 7 m/S 751 mmHg 79%
    02:00 +6°C° 0 mm 7 m/S 751 mmHg 79%
    03:00 +6°C° 0 mm 7 m/S 750 mmHg 78%
    04:00 +8°C° 0 mm 7 m/S 750 mmHg 75%
    05:00 +9°C° 0 mm 8 m/S 750 mmHg 71%
    06:00 +8°C° 0 mm 9 m/S 750 mmHg 67%
    07:00 +10°C° 0.1 mm 9 m/S 750 mmHg 69%
    08:00 +9°C° 0.1 mm 10 m/S 750 mmHg 71%
    09:00 +11°C° 0.1 mm 10 m/S 750 mmHg 72%
    10:00 +11°C° 0.6 mm 10 m/S 750 mmHg 77%
    11:00 +11°C° 0.6 mm 11 m/S 750 mmHg 82%
    12:00 +11°C° 0.6 mm 11 m/S 750 mmHg 86%
    13:00 +12°C° 1 mm 10 m/S 750 mmHg 84%
    14:00 +13°C° 1 mm 10 m/S 750 mmHg 81%
    15:00 +13°C° 1 mm 10 m/S 750 mmHg 79%
    16:00 +13°C° 0.3 mm 9 m/S 750 mmHg 80%
    17:00 +13°C° 0.3 mm 8 m/S 750 mmHg 82%
    18:00 +14°C° 0.3 mm 7 m/S 750 mmHg 84%
    19:00 +12°C° 0.4 mm 7 m/S 750 mmHg 86%
    20:00 +11°C° 0.4 mm 7 m/S 750 mmHg 88%
    21:00 +10°C° 0.4 mm 6 m/S 751 mmHg 91%
    22:00 +9°C° 0.3 mm 6 m/S 751 mmHg 92%
    23:00 +9°C° 0.3 mm 5 m/S 751 mmHg 93%
    Mehr zeigen